IBE04GF LEMD-LEBL

Flight info

Callsign IBE04GF
Flight time 0h 45m
Altitude 30000
Route PINAR N870 PONEN T600 CASPE
Aircraft A319/M-SDE3FGHIRWY/LB1

Departure

Time 2026-05-06 12:15
Airport Adolfo Suárez Madrid–Barajas Airport (LEMD)

Arrival

Time 2026-05-06 13:01
Airport Josep Tarradellas Barcelona-El Prat Airport (LEBL)
Time Latitude Longitude Altitude Speed Heading
2026-05-06 11:39 40.49270 -3.58968 2022 ft 0 kts 269°
2026-05-06 12:04 40.49270 -3.58942 2024 ft 4 kts 269°
2026-05-06 12:04 40.49270 -3.58914 2031 ft 4 kts 262°
2026-05-06 12:05 40.49280 -3.58887 2022 ft 4 kts 204°
2026-05-06 12:05 40.49303 -3.58882 2032 ft 3 kts 179°
2026-05-06 12:05 40.49306 -3.58882 2022 ft 0 kts 179°
2026-05-06 12:07 40.49301 -3.58882 2022 ft 4 kts 179°
2026-05-06 12:07 40.49184 -3.58881 2022 ft 20 kts 179°
2026-05-06 12:08 40.49093 -3.58880 2026 ft 20 kts 179°
2026-05-06 12:08 40.48953 -3.58878 2022 ft 20 kts 179°
2026-05-06 12:08 40.48810 -3.58877 2022 ft 18 kts 180°
2026-05-06 12:08 40.48758 -3.58738 2022 ft 20 kts 89°
2026-05-06 12:09 40.48760 -3.58593 2027 ft 25 kts 89°
2026-05-06 12:09 40.48761 -3.58357 2014 ft 27 kts 89°
2026-05-06 12:09 40.48762 -3.58134 2006 ft 18 kts 89°
2026-05-06 12:09 40.48827 -3.58047 2003 ft 16 kts 16°
2026-05-06 12:10 40.48857 -3.57897 1998 ft 22 kts 90°
2026-05-06 12:10 40.48860 -3.57673 1991 ft 26 kts 89°
2026-05-06 12:10 40.48860 -3.57427 1987 ft 28 kts 90°
2026-05-06 12:10 40.48860 -3.57202 1983 ft 24 kts 90°
2026-05-06 12:11 40.48861 -3.56972 1979 ft 26 kts 90°
2026-05-06 12:11 40.48862 -3.56739 1975 ft 24 kts 90°
2026-05-06 12:11 40.48863 -3.56513 1970 ft 26 kts 90°
2026-05-06 12:11 40.48864 -3.56297 1963 ft 18 kts 84°
2026-05-06 12:12 40.48967 -3.56244 1962 ft 18 kts 359°
2026-05-06 12:12 40.49096 -3.56245 1962 ft 19 kts
2026-05-06 12:12 40.49229 -3.56245 1962 ft 19 kts
2026-05-06 12:12 40.49365 -3.56246 1962 ft 20 kts 359°
2026-05-06 12:13 40.49506 -3.56248 1961 ft 21 kts 360°
2026-05-06 12:13 40.49651 -3.56249 1962 ft 21 kts 360°
2026-05-06 12:13 40.49799 -3.56249 1961 ft 22 kts 360°
2026-05-06 12:13 40.49922 -3.56241 1965 ft 12 kts 27°
2026-05-06 12:14 40.49941 -3.56125 1958 ft 15 kts 90°
2026-05-06 12:14 40.49967 -3.55986 1961 ft 16 kts 54°
2026-05-06 12:14 40.50060 -3.55923 1960 ft 16 kts
2026-05-06 12:14 40.50169 -3.55923 1961 ft 16 kts
2026-05-06 12:15 40.50419 -3.55924 1963 ft 73 kts 360°
2026-05-06 12:15 40.51175 -3.55930 1955 ft 142 kts 359°
2026-05-06 12:15 40.52330 -3.55945 2143 ft 176 kts 359°
2026-05-06 12:15 40.53559 -3.55955 2831 ft 178 kts
2026-05-06 12:16 40.54798 -3.55693 3458 ft 188 kts 17°
2026-05-06 12:16 40.56113 -3.55153 3888 ft 206 kts 17°
2026-05-06 12:16 40.57541 -3.54571 4327 ft 224 kts 17°
2026-05-06 12:16 40.59058 -3.53911 5029 ft 232 kts 25°
2026-05-06 12:17 40.60415 -3.52724 5725 ft 249 kts 39°
2026-05-06 12:17 40.61803 -3.51191 6272 ft 271 kts 40°
2026-05-06 12:17 40.63261 -3.49545 7142 ft 279 kts 40°
2026-05-06 12:17 40.64746 -3.47865 8103 ft 284 kts 40°
2026-05-06 12:18 40.66260 -3.46156 9053 ft 290 kts 40°
2026-05-06 12:18 40.67807 -3.44417 10022 ft 292 kts 41°
2026-05-06 12:18 40.69403 -3.42629 10564 ft 313 kts 40°
2026-05-06 12:18 40.71119 -3.40707 10982 ft 333 kts 40°
2026-05-06 12:19 40.72912 -3.38688 11760 ft 341 kts 40°
2026-05-06 12:19 40.74726 -3.36650 12618 ft 345 kts 40°
2026-05-06 12:19 40.76564 -3.34591 13424 ft 349 kts 39°
2026-05-06 12:19 40.78429 -3.32496 14177 ft 355 kts 39°
2026-05-06 12:20 40.80321 -3.30367 14906 ft 360 kts 39°
2026-05-06 12:20 40.82240 -3.28210 15613 ft 365 kts 39°
2026-05-06 12:20 40.84026 -3.25787 16298 ft 372 kts 50°
2026-05-06 12:20 40.85432 -3.22887 16971 ft 378 kts 62°
2026-05-06 12:21 40.86383 -3.19622 17616 ft 385 kts 73°
2026-05-06 12:21 40.87055 -3.16174 18255 ft 390 kts 75°
2026-05-06 12:21 40.87744 -3.12681 18883 ft 395 kts 74°
2026-05-06 12:21 40.88436 -3.09200 19515 ft 399 kts 74°
2026-05-06 12:22 40.89146 -3.05626 20121 ft 404 kts 74°
2026-05-06 12:22 40.89860 -3.02017 20712 ft 409 kts 74°
2026-05-06 12:22 40.90579 -2.98359 21306 ft 413 kts 75°
2026-05-06 12:22 40.91303 -2.94660 21883 ft 417 kts 75°
2026-05-06 12:23 40.92028 -2.90930 22452 ft 421 kts 75°
2026-05-06 12:23 40.92759 -2.87165 22999 ft 425 kts 75°
2026-05-06 12:23 40.93499 -2.83354 23510 ft 429 kts 75°
2026-05-06 12:23 40.94244 -2.79522 24025 ft 433 kts 75°
2026-05-06 12:24 40.94998 -2.75648 24515 ft 436 kts 75°
2026-05-06 12:24 40.95756 -2.71743 24950 ft 441 kts 75°
2026-05-06 12:24 40.96520 -2.67785 25367 ft 446 kts 75°
2026-05-06 12:24 40.97290 -2.63790 25787 ft 450 kts 75°
2026-05-06 12:25 40.98066 -2.59752 26193 ft 455 kts 75°
2026-05-06 12:25 40.98848 -2.55682 26581 ft 459 kts 75°
2026-05-06 12:25 40.99635 -2.51570 26985 ft 462 kts 75°
2026-05-06 12:25 41.00428 -2.47420 27366 ft 467 kts 76°
2026-05-06 12:26 41.01227 -2.43228 27748 ft 471 kts 76°
2026-05-06 12:26 41.02017 -2.39063 28116 ft 475 kts 76°
2026-05-06 12:26 41.02825 -2.34799 28475 ft 479 kts 76°
2026-05-06 12:26 41.03642 -2.30498 28829 ft 483 kts 76°
2026-05-06 12:27 41.04463 -2.26171 29176 ft 487 kts 76°
2026-05-06 12:27 41.05289 -2.21804 29502 ft 490 kts 76°
2026-05-06 12:27 41.06118 -2.17417 29805 ft 494 kts 76°
2026-05-06 12:27 41.06948 -2.12982 29962 ft 495 kts 76°
2026-05-06 12:28 41.07762 -2.08619 29992 ft 482 kts 76°
2026-05-06 12:28 41.08562 -2.04326 29988 ft 477 kts 76°
2026-05-06 12:28 41.10144 -1.95813 29992 ft 476 kts 76°
2026-05-06 12:29 41.11733 -1.87280 29988 ft 477 kts 76°
2026-05-06 12:29 41.13307 -1.78735 29982 ft 477 kts 76°
2026-05-06 12:30 41.14873 -1.70186 29978 ft 477 kts 77°
2026-05-06 12:30 41.16436 -1.61635 29972 ft 476 kts 77°
2026-05-06 12:31 41.17992 -1.53093 29970 ft 476 kts 77°
2026-05-06 12:31 41.19541 -1.44549 29972 ft 476 kts 77°
2026-05-06 12:32 41.21087 -1.36003 29963 ft 476 kts 77°
2026-05-06 12:32 41.22619 -1.27463 29962 ft 475 kts 77°
2026-05-06 12:33 41.24135 -1.18989 29963 ft 475 kts 77°
2026-05-06 12:33 41.25653 -1.10432 29965 ft 476 kts 77°
2026-05-06 12:34 41.27167 -1.01876 29969 ft 476 kts 77°
2026-05-06 12:34 41.28685 -0.93317 29971 ft 476 kts 77°
2026-05-06 12:35 41.30187 -0.84752 29975 ft 476 kts 77°
2026-05-06 12:35 41.31688 -0.76170 29973 ft 476 kts 77°
2026-05-06 12:36 41.33174 -0.67583 29974 ft 476 kts 77°
2026-05-06 12:36 41.34635 -0.58998 29971 ft 475 kts 81°
2026-05-06 12:37 41.34880 -0.50263 29967 ft 471 kts 99°
2026-05-06 12:37 41.33920 -0.41677 29969 ft 470 kts 102°
2026-05-06 12:38 41.32950 -0.33071 29973 ft 470 kts 102°
2026-05-06 12:38 41.31981 -0.24464 29963 ft 470 kts 102°
2026-05-06 12:39 41.31003 -0.15868 29954 ft 470 kts 102°
2026-05-06 12:39 41.30010 -0.07228 29771 ft 478 kts 102°
2026-05-06 12:40 41.29514 -0.02908 29520 ft 479 kts 102°
2026-05-06 12:40 41.29009 0.01473 29266 ft 478 kts 102°
2026-05-06 12:40 41.28499 0.05889 29012 ft 477 kts 103°
2026-05-06 12:40 41.27998 0.10191 28760 ft 476 kts 103°
2026-05-06 12:41 41.27501 0.14525 28513 ft 475 kts 101°
2026-05-06 12:41 41.27333 0.18907 28127 ft 476 kts 91°
2026-05-06 12:41 41.27682 0.23285 27618 ft 475 kts 81°
2026-05-06 12:41 41.28512 0.27537 27279 ft 474 kts 74°
2026-05-06 12:42 41.29443 0.31721 26889 ft 471 kts 75°
2026-05-06 12:42 41.30363 0.35891 26508 ft 468 kts 75°
2026-05-06 12:42 41.31269 0.40030 26127 ft 465 kts 75°
2026-05-06 12:42 41.32171 0.44160 25748 ft 462 kts 75°
2026-05-06 12:43 41.33058 0.48246 25366 ft 459 kts 75°
2026-05-06 12:43 41.33936 0.52306 24995 ft 456 kts 75°
2026-05-06 12:43 41.34810 0.56350 24623 ft 453 kts 75°
2026-05-06 12:43 41.35676 0.60360 24248 ft 450 kts 75°
2026-05-06 12:44 41.36536 0.64352 23881 ft 447 kts 75°
2026-05-06 12:44 41.37393 0.68323 23513 ft 444 kts 75°
2026-05-06 12:44 41.38240 0.72258 23152 ft 441 kts 75°
2026-05-06 12:44 41.39080 0.76176 22796 ft 438 kts 75°
2026-05-06 12:45 41.39912 0.80057 22439 ft 434 kts 75°
2026-05-06 12:45 41.40739 0.83900 22085 ft 430 kts 75°
2026-05-06 12:45 41.42371 0.91505 21389 ft 424 kts 75°
2026-05-06 12:46 41.43174 0.95273 21042 ft 420 kts 75°
2026-05-06 12:46 41.43953 0.98959 20701 ft 418 kts 75°
2026-05-06 12:46 41.44734 1.02670 20365 ft 415 kts 75°
2026-05-06 12:46 41.45522 1.06407 20007 ft 411 kts 75°
2026-05-06 12:47 41.46283 1.10010 19621 ft 408 kts 75°
2026-05-06 12:47 41.47048 1.13639 19190 ft 404 kts 75°
2026-05-06 12:47 41.47804 1.17232 18777 ft 401 kts 75°
2026-05-06 12:47 41.48550 1.20784 18368 ft 396 kts 75°
2026-05-06 12:48 41.49291 1.24309 17959 ft 392 kts 75°
2026-05-06 12:48 41.50024 1.27801 17550 ft 389 kts 75°
2026-05-06 12:48 41.50748 1.31254 17156 ft 385 kts 75°
2026-05-06 12:48 41.51466 1.34686 16753 ft 382 kts 75°
2026-05-06 12:49 41.52177 1.38088 16365 ft 380 kts 75°
2026-05-06 12:49 41.52882 1.41477 15952 ft 377 kts 75°
2026-05-06 12:49 41.53579 1.44835 15551 ft 374 kts 75°
2026-05-06 12:49 41.54267 1.48174 15166 ft 371 kts 76°
2026-05-06 12:50 41.54677 1.51555 14752 ft 369 kts 87°
2026-05-06 12:50 41.54729 1.54978 14170 ft 369 kts 90°
2026-05-06 12:50 41.54752 1.58386 13761 ft 364 kts 90°
2026-05-06 12:50 41.54775 1.61772 13178 ft 365 kts 90°
2026-05-06 12:51 41.54800 1.65128 12805 ft 358 kts 90°
2026-05-06 12:51 41.54823 1.68443 12313 ft 356 kts 90°
2026-05-06 12:51 41.54842 1.71740 11844 ft 353 kts 90°
2026-05-06 12:51 41.54859 1.75005 11371 ft 350 kts 90°
2026-05-06 12:52 41.54877 1.78232 10833 ft 345 kts 90°
2026-05-06 12:52 41.54897 1.81399 10512 ft 332 kts 90°
2026-05-06 12:52 41.54914 1.84391 10326 ft 315 kts 90°
2026-05-06 12:52 41.54930 1.87278 9928 ft 308 kts 90°
2026-05-06 12:53 41.54812 1.90082 9719 ft 301 kts 100°
2026-05-06 12:53 41.54446 1.92835 9318 ft 300 kts 101°
2026-05-06 12:53 41.54077 1.95568 8883 ft 299 kts 101°
2026-05-06 12:53 41.53706 1.98311 8441 ft 300 kts 101°
2026-05-06 12:54 41.53461 2.00110 8226 ft 296 kts 101°
2026-05-06 12:54 41.53093 2.02817 7763 ft 297 kts 102°
2026-05-06 12:54 41.52731 2.05500 7442 ft 291 kts 102°
2026-05-06 12:54 41.52371 2.08158 6948 ft 289 kts 102°
2026-05-06 12:55 41.51500 2.11456 6344 ft 282 kts 122°
2026-05-06 12:55 41.50757 2.12900 6005 ft 278 kts 131°
2026-05-06 12:55 41.49505 2.14827 5541 ft 273 kts 133°
2026-05-06 12:55 41.48271 2.16735 5109 ft 269 kts 133°
2026-05-06 12:56 41.47057 2.18623 4673 ft 268 kts 132°
2026-05-06 12:56 41.45861 2.20481 4250 ft 266 kts 132°
2026-05-06 12:56 41.44666 2.22342 3992 ft 257 kts 131°
2026-05-06 12:56 41.43538 2.24099 3928 ft 243 kts 133°
2026-05-06 12:57 41.42473 2.25756 3821 ft 229 kts 132°
2026-05-06 12:57 41.41309 2.27104 3720 ft 216 kts 152°
2026-05-06 12:57 41.39943 2.27778 3628 ft 206 kts 172°
2026-05-06 12:57 41.38529 2.27789 3574 ft 204 kts 191°
2026-05-06 12:58 41.37175 2.27181 3260 ft 208 kts 210°
2026-05-06 12:58 41.36051 2.25969 2899 ft 211 kts 229°
2026-05-06 12:58 41.35300 2.24275 2454 ft 219 kts 245°
2026-05-06 12:58 41.34668 2.22402 2002 ft 221 kts 245°
2026-05-06 12:59 41.34050 2.20570 1688 ft 213 kts 244°
2026-05-06 12:59 41.33454 2.18813 1403 ft 203 kts 244°
2026-05-06 12:59 41.32884 2.17141 1162 ft 191 kts 244°
2026-05-06 12:59 41.32351 2.15579 893 ft 179 kts 243°
2026-05-06 13:00 41.31852 2.14119 659 ft 167 kts 244°
2026-05-06 13:00 41.31400 2.12793 449 ft 147 kts 244°
2026-05-06 13:00 41.31002 2.11628 263 ft 134 kts 244°
2026-05-06 13:00 41.30627 2.10529 100 ft 129 kts 244°
2026-05-06 13:01 41.30270 2.09489 20 ft 111 kts 245°
2026-05-06 13:01 41.30066 2.08901 20 ft 31 kts 245°
2026-05-06 13:01 41.29960 2.08672 24 ft 29 kts 226°
2026-05-06 13:01 41.29825 2.08523 19 ft 24 kts 216°
2026-05-06 13:02 41.29710 2.08400 17 ft 20 kts 237°
2026-05-06 13:02 41.29651 2.08248 17 ft 15 kts 225°
2026-05-06 13:02 41.29558 2.08188 17 ft 17 kts 239°
2026-05-06 13:02 41.29496 2.08013 15 ft 24 kts 245°
2026-05-06 13:03 41.29426 2.07804 16 ft 25 kts 245°
2026-05-06 13:03 41.29357 2.07601 17 ft 17 kts 245°
2026-05-06 13:03 41.29288 2.07546 19 ft 12 kts 228°
2026-05-06 13:03 41.29235 2.07403 19 ft 20 kts 246°
2026-05-06 13:04 41.29177 2.07235 19 ft 21 kts 246°
2026-05-06 13:04 41.29117 2.07056 20 ft 22 kts 245°
2026-05-06 13:04 41.29072 2.06938 20 ft 8 kts 223°
2026-05-06 13:04 41.29025 2.06959 20 ft 8 kts 155°
2026-05-06 13:05 41.29006 2.06971 20 ft 0 kts 155°